000  
AXUS43 KGID 242202  
MISGRI  
 
GID CWA HOURLY WEATHER ROUNDUP  
NATIONAL WEATHER SERVICE HASTINGS NE  
500 PM CDT TUE APR 24 2018  
 
NOTE: "FAIR" INDICATES FEW OR NO CLOUDS BELOW 12,000 FEET WITH NO  
SIGNIFICANT WEATHER AND/OR OBSTRUCTIONS TO VISIBILITY.  
   
..SOUTH CENTRAL NEBRASKA
 
 
 
CITY SKY/WX TMP DP RH WIND PRES REMARKS  
GRAND ISLAND CLOUDY 47 43 86 NW20 30.23F  
KEARNEY CLOUDY 44 41 89 NW18 30.26S  
HASTINGS LGT RAIN 45 43 93 NW18 30.24R  
ORD LGT RAIN 44 43 96 N20G30 30.24R FOG  
YORK LGT RAIN 48 48 100 N9 30.21F  
AURORA LGT RAIN 46 44 95 NW16 30.21F  
LEXINGTON CLOUDY 44 39 82 N18G29 30.29S  
HOLDREGE CLOUDY 44 41 90 N16G25 30.27S  
HEBRON LGT RAIN 49 46 90 N12 30.22F  
   
..NEBRASKA PANHANDLE
 
 
 
CITY SKY/WX TMP DP RH WIND PRES REMARKS  
CHADRON CLOUDY 45 29 53 N13 30.44F  
ALLIANCE CLOUDY 39 30 70 N23G32 30.39F WCI 28  
SCOTTSBLUFF CLOUDY 45 34 65 N16 30.41F  
SIDNEY CLOUDY 40 30 67 N22 30.39S WCI 30  
   
..WESTERN AND NORTH CENTRAL NEBRASKA
 
 
 
CITY SKY/WX TMP DP RH WIND PRES REMARKS  
VALENTINE CLOUDY 39 35 86 N20G30 30.38R WCI 29  
AINSWORTH DRIZZLE 37 37 100 N21G29 30.35S WCI 26  
ONEILL CLOUDY 46 44 93 N15G22 30.27R FOG  
BROKEN BOW LGT RAIN 42 38 85 N25G39 30.28S  
IMPERIAL CLOUDY 43 35 73 N23G33 30.35R  
NORTH PLATTE CLOUDY 42 35 76 N18G28 30.33S  
MCCOOK CLOUDY 46 39 76 N22 30.30F  
   
..EASTERN NEBRASKA
 
 
 
CITY SKY/WX TMP DP RH WIND PRES REMARKS  
NORFOLK LGT RAIN 48 47 96 NW8 30.19S  
SO SIOUX CITY LGT RAIN 59 43 55 N10 30.17S  
TEKAMAH CLOUDY 60 32 34 NW16 30.16R  
COLUMBUS LGT RAIN 50 47 89 NW9 30.21F  
ALBION CLOUDY 50 47 91 N9 30.20F  
OMAHA EPPLEY CLOUDY 65 43 44 NW16 30.12R  
OFFUTT AFB CLOUDY 64 43 46 NW15G31 30.11R  
MILLARD CLOUDY 62 47 58 NW18 30.15R  
LINCOLN LGT RAIN 53 49 86 NW12 30.21R  
NEBRASKA CITY CLOUDY 66 44 45 NW25 30.11S  
BEATRICE CLOUDY 56 48 72 NW18G24 30.19S  
FALLS CITY CLOUDY 68 43 40 NW22G30 30.08R  
   
..NORTHERN KANSAS
 
 
 
CITY SKY/WX TMP DP RH WIND PRES REMARKS  
GOODLAND CLOUDY 42 35 76 N22G32 30.32R  
HILL CITY LGT RAIN 45 42 89 N15G28 30.29F  
NORTON CLOUDY 45 39 81 NW16 30.27F  
PHILLIPSBURG LGT RAIN 46 45 93 NW12G20 30.27S  
SMITH CENTER RAIN 45 43 93 NW14 30.26S  
BELOIT CLOUDY 48 45 87 NW13G18 30.23S  
HAYS CLOUDY 45 42 89 NW21G29 30.25S  
RUSSELL CLOUDY 47 45 93 NW20G26 30.23F  
CONCORDIA CLOUDY 50 47 89 N10 30.19F  
SALINA CLOUDY 58 48 69 NW16 30.18S  
TOPEKA CLOUDY 74 34 23 N13 30.06F  
 
CLICK HERE TO GO TO PREVIOUS BULLETINS.

The Nexlab NE Page
The Nexlab KS Page Main Text Page